Temp
9 9 8 9 9 9 9 9 9 10 10 10 10 10 10 10 9 8 7 7 6 8 8 8 9 8 8 8 8 8 8 8 8 7 8 8 8 7 7 7 7 7 6 6 6 7 7 7 7
9 9 8 8 9 8 8 8 9 9 9 9 8 9 8 8 8 7 7 7 6 7 8 8 8 8 8 8 8 8 8 8 8 7 7 7 7 7 7 7 7 7 7 6 6 7 7 7 7
8 8 8 8 8 8 8 8 8 8 8 8 8 6 7 7 8 7 8 8 8 7 7 8 8 8 8 8 8 8 8 7 7 7 7 7 7 7 7 7 6 7 6 6 6 6 6 7 7
8 8 8 8 7 7 7 7 8 8 8 7 7 6 6 7 7 7 7 7 7 7 7 7 7 7 7 8 7 7 7 7 7 7 7 7 7 7 7 7 6 6 6 6 6 6 6 7 7
8 8 8 8 7 7 7 7 7 8 7 6 6 7 6 7 7 7 7 7 7 7 7 7 7 7 7 7 7 7 7 7 7 7 7 7 7 7 7 7 6 6 6 6 6 6 6 6 7
8 8 7 7 7 7 7 7 7 7 7 6 6 6 6 6 6 6 6 7 7 7 7 7 7 7 7 7 7 7 7 7 6 7 7 7 7 6 6 6 6 6 6 6 6 6 6 7 7
8 7 7 7 7 7 8 7 6 6 7 6 6 6 7 7 6 6 6 7 7 7 7 7 7 7 7 7 6 6 6 6 6 6 6 7 7 6 6 6 6 6 6 6 7 7 7 7 7
7 7 6 7 7 7 7 7 6 6 6 6 6 7 7 6 6 6 6 6 7 7 7 7 7 7 7 7 6 6 6 6 6 6 6 6 6 6 6 6 6 6 6 6 6 6 6 7 7
7 6 6 6 6 7 6 7 6 6 6 6 6 6 6 6 6 6 6 6 6 6 7 7 7 7 7 7 7 6 6 6 6 6 6 5 6 6 6 6 5 5 6 5 5 5 6 6 6
6 6 6 7 7 6 6 7 6 6 6 6 6 6 6 6 6 7 7 7 7 7 7 7 7 7 7 7 7 6 6 6 6 6 5 5 5 5 5 6 6 5 5 5 5 5 5 5 6
6 6 6 6 6 6 6 6 6 6 6 7 7 6 6 6 7 7 7 7 7 7 7 7 7 7 7 7 6 6 6 6 6 6 5 5 5 5 5 5 5 5 5 5 5 5 5 5 6
6 6 6 6 6 6 6 6 6 6 7 7 6 6 7 7 7 7 7 7 7 7 7 7 7 7 7 6 6 6 6 6 6 6 5 5 5 5 5 5 5 5 5 5 5 5 5 5 5
6 6 6 6 6 6 6 6 6 6 6 6 6 6 6 6 7 7 7 7 6 6 6 6 6 6 6 6 6 6 6 5 5 5 5 5 5 5 5 5 5 4 4 4 4 4 4 4 4
6 6 6 6 6 6 6 6 7 7 6 6 6 6 6 6 6 7 6 6 6 6 6 6 6 5 5 5 5 5 5 5 5 5 5 5 5 5 5 5 5 4 4 4 4 4 4 3 3
5 6 6 6 6 6 6 6 7 7 6 6 6 7 6 6 6 6 6 6 6 5 5 5 5 5 5 5 4 4 4 4 4 4 4 4 4 5 4 4 4 4 4 4 4 3 4 3 3
5 5 6 6 6 6 6 6 6 6 6 6 6 6 6 6 5 6 5 5 5 5 4 4 4 4 4 4 4 4 4 3 3 3 3 4 4 3 3 3 4 4 4 4 4 3 2 3 3
5 5 6 5 5 6 6 6 6 6 6 6 6 6 6 5 5 5 5 5 4 4 4 4 4 3 3 3 3 3 3 3 3 3 3 2 3 3 3 3 3 3 3 3 3 3 3 3 2
5 5 5 5 5 6 6 6 5 6 6 6 6 6 5 4 4 4 4 4 3 4 3 3 3 3 3 3 3 3 3 3 3 3 2 2 2 2 3 2 2 2 2 2 2 2 2 2 2
5 4 4 5 5 5 5 6 6 5 5 6 5 5 4 4 4 4 3 3 3 3 3 2 3 2 3 3 3 3 3 3 2 2 2 2 1 1 2 2 2 1 1 1 1 2 2 2 2
4 4 4 4 4 4 5 6 6 6 6 5 4 4 4 4 3 3 3 2 2 2 2 2 3 2 2 2 2 3 3 3 2 1 1 2 1 1 1 1 1 1 1 1 0 1 1 1 -1
3 4 4 4 4 4 4 5 6 5 4 4 3 2 2 3 3 3 2 2 2 2 2 2 2 2 2 2 2 3 3 3 3 2 1 1 1 1 1 1 1 0 -0 -1 -0 -0 -0 -0 -0
2 3 3 3 3 3 3 1 5 4 3 3 2 2 2 2 2 1 1 1 1 1 2 2 2 1 2 2 2 2 2 3 2 2 2 1 0 0 -0 0 1 0 0 -0 -1 -1 -1 -1 -1
2 2 2 2 2 2 2 2 4 3 3 2 2 2 3 2 1 1 0 1 1 2 2 2 1 1 2 2 2 2 2 2 2 2 2 2 1 1 0 -0 -0 -1 -1 -0 -1 -1 -1 -1 -1
1 1 1 1 1 -3 3 3 3 2 2 2 1 2 2 1 1 0 0 1 1 1 1 1 1 1 2 2 2 2 2 1 1 1 1 1 0 -0 0 0 -0 -1 -3 -3 -2 -2 -1 -1 -1
-1 0 -2 -4 -6 -5 2 0 2 2 2 2 2 2 2 1 0 -0 1 1 1 1 1 1 1 1 2 2 2 2 1 0 -1 -0 0 0 0 -0 -0 -1 -1 -2 -3 -3 -2 -2 -2 -1 -1
-0 -0 0 -6 -6 -4 -0 0 2 1 2 1 1 1 0 -0 -1 -0 0 1 1 0 0 1 1 1 1 1 1 1 -0 -2 -2 -2 -1 -1 -0 -0 -1 -1 -2 -2 -3 -2 -2 -2 -2 -2 -2
-2 -2 -1 -0 -1 -2 0 -0 -0 0 1 1 0 0 -0 -1 -1 -0 0 0 -0 -0 0 0 1 1 1 0 -0 -1 -3 -3 -3 -2 -2 -2 -2 -1 -1 -2 -2 -3 -2 -3 -2 -3 -3 -2 -2
-2 -1 -1 -1 -6 -5 -2 -0 2 1 1 0 -0 -0 -0 -1 -1 -0 -0 -0 -1 -1 -0 -0 1 1 0 -1 -2 -2 -3 -3 -3 -3 -2 -2 -2 -2 -2 -2 -2 -3 -3 -3 -3 -3 -4 -3 -3
-2 -2 -1 -1 -1 -8 -7 -0 1 2 1 -0 -2 -1 -0 -1 -0 -0 -1 -1 -2 -1 -1 -0 0 -0 -1 -2 -2 -3 -3 -3 -3 -3 -3 -3 -3 -3 -3 -3 -3 -3 -3 -4 -4 -3 -3 -3 -3
-2 -2 -2 -1 -2 -2 -3 -1 1 0 -1 -2 -2 -1 -1 -1 -2 -1 -2 -2 -2 -1 -1 -0 -0 -1 -2 -2 -2 -2 -3 -3 -3 -3 -4 -3 -3 -3 -3 -3 -3 -3 -4 -4 -3 -3 -4 -3 -4
Height
3128 3128 3130 3131 3135 3131 3131 3134 3133 3133 3134 3136 3135 3136 3138 3139 3139 3143 3141 3142 3143 3145 3148 3149 3151 3152 3153 3154 3154 3155 3156 3157 3158 3158 3158 3159 3160 3160 3161 3161 3162 3163 3163 3162 3162 3162 3163 3162 3162
3125 3126 3128 3128 3130 3129 3131 3130 3130 3131 3133 3134 3133 3134 3136 3136 3138 3138 3140 3141 3141 3144 3145 3148 3149 3150 3151 3152 3153 3154 3155 3156 3157 3157 3158 3158 3159 3160 3160 3161 3161 3161 3162 3162 3162 3162 3162 3162 3162
3123 3125 3127 3127 3127 3128 3129 3128 3129 3130 3131 3132 3133 3133 3134 3135 3137 3137 3138 3140 3141 3142 3144 3145 3147 3149 3150 3151 3152 3153 3154 3154 3155 3156 3157 3157 3157 3158 3159 3159 3160 3161 3161 3161 3161 3162 3161 3161 3161
3122 3124 3126 3125 3126 3126 3126 3126 3129 3129 3130 3131 3132 3133 3134 3135 3136 3137 3138 3140 3141 3143 3143 3144 3145 3147 3148 3149 3150 3151 3152 3152 3153 3154 3155 3156 3157 3157 3157 3158 3158 3159 3160 3160 3160 3161 3161 3161 3161
3121 3122 3123 3123 3124 3125 3126 3127 3127 3127 3129 3129 3130 3131 3132 3133 3136 3136 3137 3139 3140 3141 3142 3143 3144 3145 3146 3147 3148 3149 3150 3151 3151 3152 3153 3154 3155 3155 3156 3156 3157 3158 3158 3159 3160 3160 3160 3161 3161
3120 3121 3121 3122 3122 3124 3125 3126 3125 3125 3127 3128 3129 3130 3132 3134 3134 3135 3136 3137 3139 3139 3140 3141 3141 3142 3144 3145 3146 3147 3148 3148 3149 3150 3151 3152 3152 3153 3154 3155 3155 3156 3157 3158 3158 3159 3159 3159 3159
3118 3119 3120 3120 3120 3122 3123 3123 3124 3124 3125 3127 3128 3128 3130 3132 3132 3132 3133 3135 3135 3136 3137 3139 3138 3139 3140 3141 3142 3143 3145 3146 3147 3147 3148 3149 3150 3151 3152 3152 3153 3154 3155 3156 3157 3157 3157 3158 3158
3117 3119 3118 3119 3118 3120 3121 3121 3122 3123 3125 3126 3126 3125 3128 3130 3129 3130 3131 3131 3132 3132 3133 3134 3135 3135 3136 3137 3138 3139 3140 3142 3143 3144 3145 3146 3147 3148 3150 3150 3151 3152 3153 3153 3154 3155 3155 3156 3156
3116 3117 3116 3117 3117 3117 3119 3119 3120 3121 3123 3124 3124 3125 3127 3127 3128 3128 3129 3129 3129 3130 3130 3131 3131 3132 3133 3132 3133 3134 3135 3137 3138 3140 3142 3143 3144 3145 3146 3147 3148 3149 3150 3150 3151 3152 3152 3153 3153
3114 3115 3114 3115 3116 3116 3118 3118 3119 3121 3122 3122 3123 3124 3125 3126 3126 3126 3126 3126 3127 3127 3128 3129 3128 3129 3129 3129 3130 3131 3131 3132 3133 3134 3136 3138 3139 3140 3142 3143 3144 3145 3146 3147 3148 3148 3149 3149 3150
3113 3114 3113 3114 3114 3116 3116 3116 3118 3119 3120 3121 3123 3124 3124 3124 3124 3124 3124 3124 3124 3124 3125 3125 3125 3125 3125 3126 3126 3126 3126 3127 3128 3129 3131 3132 3135 3136 3137 3138 3139 3140 3141 3142 3144 3145 3146 3146 3147
3112 3111 3113 3112 3113 3114 3115 3116 3117 3117 3119 3119 3120 3121 3122 3122 3122 3122 3122 3122 3122 3122 3122 3122 3122 3122 3122 3122 3122 3122 3123 3122 3123 3124 3126 3126 3128 3130 3131 3133 3134 3135 3136 3137 3138 3140 3141 3142 3143
3110 3111 3112 3111 3112 3113 3114 3115 3116 3117 3117 3118 3119 3119 3119 3119 3119 3119 3119 3120 3119 3119 3120 3120 3120 3120 3120 3120 3120 3119 3119 3119 3119 3119 3119 3121 3122 3124 3125 3127 3129 3130 3130 3131 3132 3134 3135 3137 3139
3110 3110 3111 3111 3111 3112 3113 3114 3114 3116 3116 3117 3117 3117 3117 3117 3117 3117 3117 3118 3117 3117 3117 3117 3118 3117 3117 3117 3117 3117 3117 3116 3115 3115 3114 3114 3115 3118 3119 3120 3122 3123 3124 3125 3126 3126 3127 3130 3132
3108 3108 3109 3109 3110 3111 3111 3112 3112 3113 3114 3115 3114 3115 3115 3115 3115 3115 3114 3115 3115 3115 3115 3115 3115 3115 3115 3114 3114 3113 3112 3112 3112 3111 3110 3109 3108 3110 3113 3113 3113 3114 3116 3118 3120 3120 3121 3110 3120
3106 3106 3106 3107 3108 3109 3110 3110 3109 3112 3112 3112 3112 3112 3113 3113 3113 3113 3113 3113 3112 3112 3112 3112 3112 3111 3111 3110 3110 3109 3108 3108 3107 3106 3106 3105 3103 3104 3105 3105 3105 3106 3108 3109 3110 3113 3115 3114 3113
3103 3103 3103 3105 3105 3106 3107 3107 3108 3109 3109 3110 3110 3110 3110 3110 3111 3111 3111 3110 3109 3109 3109 3108 3108 3107 3106 3105 3104 3103 3103 3102 3101 3100 3099 3099 3096 3098 3099 3098 3098 3099 3100 3101 3102 3104 3108 3110 3111
3100 3101 3101 3101 3103 3103 3104 3105 3105 3105 3105 3106 3106 3106 3107 3108 3108 3108 3107 3107 3107 3106 3106 3105 3104 3102 3101 3099 3098 3096 3095 3095 3093 3092 3091 3090 3089 3089 3091 3092 3091 3092 3093 3094 3095 3097 3098 3101 3104
3098 3099 3100 3099 3100 3101 3101 3101 3102 3103 3101 3100 3101 3102 3104 3105 3105 3105 3104 3103 3103 3102 3102 3101 3100 3097 3095 3092 3090 3089 3087 3085 3084 3082 3083 3082 3080 3078 3080 3082 3083 3083 3084 3087 3087 3088 3090 3091 3093
3095 3096 3097 3097 3098 3098 3097 3097 3097 3097 3097 3096 3096 3097 3099 3101 3101 3100 3099 3100 3099 3098 3096 3094 3092 3090 3088 3085 3082 3079 3077 3075 3073 3072 3071 3071 3072 3072 3070 3070 3073 3073 3075 3077 3079 3080 3082 3083 3088
3091 3092 3093 3094 3094 3095 3094 3093 3092 3093 3092 3092 3093 3095 3096 3096 3095 3096 3096 3096 3094 3092 3090 3088 3085 3083 3080 3077 3074 3071 3068 3065 3063 3061 3060 3060 3060 3062 3062 3061 3062 3063 3065 3068 3071 3073 3074 3075 3078
3087 3088 3089 3089 3091 3093 3093 3091 3089 3091 3091 3091 3091 3092 3092 3093 3093 3093 3093 3092 3090 3088 3086 3082 3079 3076 3073 3069 3065 3061 3058 3055 3054 3052 3051 3051 3050 3050 3052 3052 3053 3053 3055 3057 3062 3066 3068 3069 3071
3084 3084 3087 3087 3088 3090 3090 3091 3085 3086 3087 3088 3088 3088 3090 3089 3090 3089 3088 3087 3085 3082 3079 3076 3072 3069 3065 3061 3057 3053 3048 3045 3043 3042 3041 3042 3040 3040 3041 3042 3043 3044 3044 3047 3051 3056 3059 3061 3063
3081 3083 3085 3084 3085 3087 3084 3086 3080 3080 3082 3083 3083 3083 3085 3085 3085 3085 3083 3082 3080 3076 3072 3068 3064 3061 3057 3053 3048 3044 3039 3035 3033 3032 3032 3032 3032 3031 3031 3032 3033 3034 3035 3038 3040 3046 3051 3052 3055
3078 3080 3083 3087 3088 3082 3079 3081 3077 3078 3079 3080 3079 3080 3081 3081 3081 3080 3079 3077 3073 3069 3065 3061 3056 3052 3048 3043 3038 3033 3028 3024 3022 3022 3022 3023 3023 3024 3023 3022 3022 3024 3027 3030 3033 3036 3041 3045 3046
3074 3076 3075 3087 3083 3076 3077 3076 3074 3075 3076 3076 3077 3078 3077 3077 3077 3075 3073 3070 3066 3062 3058 3053 3048 3043 3039 3033 3027 3021 3017 3015 3014 3013 3013 3014 3013 3014 3014 3014 3014 3015 3018 3021 3024 3027 3032 3036 3039
3071 3070 3073 3074 3074 3073 3072 3073 3073 3074 3074 3074 3074 3074 3074 3073 3072 3070 3067 3064 3059 3055 3051 3045 3039 3035 3029 3021 3015 3011 3008 3006 3005 3005 3003 3003 3003 3003 3003 3004 3005 3006 3009 3011 3015 3019 3024 3027 3032
3069 3069 3071 3071 3076 3076 3066 3067 3066 3068 3069 3069 3070 3071 3070 3068 3067 3065 3062 3058 3054 3049 3043 3038 3032 3024 3018 3012 3007 3003 3001 2999 2998 2997 2996 2994 2993 2993 2992 2993 2995 2997 2999 3003 3006 3011 3017 3020 3025
3065 3065 3066 3066 3066 3068 3070 3063 3064 3066 3067 3066 3067 3068 3067 3064 3062 3059 3057 3052 3047 3042 3036 3030 3023 3017 3010 3005 3001 2997 2994 2993 2991 2989 2986 2984 2982 2981 2980 2982 2984 2987 2990 2994 2998 3005 3011 3015 3018
3062 3063 3063 3062 3063 3063 3064 3062 3061 3064 3063 3064 3064 3066 3063 3060 3058 3055 3051 3046 3041 3036 3030 3023 3016 3010 3004 2999 2994 2990 2987 2985 2982 2979 2977 2974 2973 2971 2971 2971 2972 2977 2982 2987 2992 3000 3005 3008 3013
Wind_Speed
7 8 8 8 7 7 3 2 6 11 12 9 11 11 11 16 11 7 9 9 10 11 11 12 12 10 8 8 8 7 6 6 5 5 4 4 3 4 4 4 5 5 4 5 4 3 1 2 3
7 7 9 9 5 5 4 8 14 13 10 8 9 11 11 13 8 9 8 3 10 9 11 12 13 12 10 9 9 8 8 7 7 6 5 4 5 5 4 4 5 5 5 3 3 3 1 2 3
6 7 9 6 2 2 6 9 10 7 8 9 10 10 11 8 11 7 8 5 4 8 10 11 12 11 10 10 10 10 9 9 9 8 8 7 5 6 5 5 5 4 5 4 5 4 4 4 5
4 7 9 7 5 3 12 10 10 8 8 8 9 9 11 7 4 8 6 4 3 5 7 9 10 10 10 11 11 11 10 11 11 10 9 8 7 7 7 6 6 6 7 4 8 8 9 8 8
5 7 9 6 7 9 10 11 13 10 7 10 11 11 7 7 6 8 8 9 9 9 10 10 10 9 10 11 12 12 12 13 13 12 12 11 10 10 9 7 8 10 10 8 8 11 13 13 10
5 7 6 6 11 12 11 12 11 9 8 9 8 9 8 6 7 8 9 11 11 11 13 13 13 14 14 14 13 13 12 13 15 16 15 14 13 12 12 10 8 10 11 13 13 15 16 14 10
6 7 6 3 9 11 10 11 11 10 9 9 9 10 10 7 9 11 13 13 15 16 17 17 18 18 17 17 17 16 15 14 14 17 17 17 16 15 14 13 12 12 13 13 14 14 14 12 10
5 6 4 6 7 11 7 6 9 9 7 7 9 9 7 4 3 5 6 9 11 12 13 15 18 20 21 22 21 21 21 20 19 17 18 19 20 19 17 17 16 15 15 16 16 14 13 12 11
6 6 5 8 8 9 6 7 9 9 8 6 7 8 5 5 5 6 8 10 12 13 13 13 15 16 16 18 19 19 22 23 24 23 20 21 22 22 21 20 20 18 18 17 18 16 15 14 13
6 8 7 11 13 11 8 7 6 7 7 7 7 6 4 4 4 5 7 9 10 11 12 12 14 15 16 18 18 17 18 20 22 25 25 23 21 23 24 25 24 23 22 22 20 20 18 16 14
7 12 10 10 11 8 8 8 7 7 8 8 7 5 4 4 5 5 6 6 7 7 8 8 10 12 16 17 18 19 20 21 21 22 25 27 27 25 24 25 27 27 26 25 24 23 23 21 17
8 10 9 8 9 7 5 6 7 7 7 6 2 2 4 4 4 3 3 2 2 3 3 4 4 5 6 9 12 17 21 23 24 23 23 25 28 30 29 26 25 27 30 30 28 26 25 26 22
8 7 7 7 7 6 6 4 5 6 5 5 3 5 5 5 4 4 4 3 3 3 4 5 5 5 5 6 8 10 13 17 22 25 27 25 26 27 31 33 31 27 26 27 30 31 29 29 25
7 7 7 7 7 7 6 7 6 6 6 4 4 5 6 5 5 5 6 4 5 6 7 7 7 8 8 8 8 9 11 13 16 19 23 28 30 28 28 30 33 36 32 36 33 30 40 36 32
10 9 9 9 9 8 7 9 8 7 6 5 7 7 7 7 7 6 7 7 8 7 8 9 9 10 11 12 12 13 14 14 14 17 19 21 25 27 28 29 32 35 38 38 39 39 30 24 23
9 11 10 9 11 11 8 6 5 6 8 8 9 9 9 8 7 7 8 8 7 8 9 10 12 13 13 14 15 16 18 18 18 19 20 21 24 22 23 25 31 35 36 39 41 43 41 40 38
11 9 8 8 10 10 10 8 9 11 11 11 12 12 11 10 9 8 9 9 10 10 12 13 14 15 17 19 20 21 22 22 24 26 27 25 28 26 23 24 25 27 32 35 38 40 37 37 31
11 13 12 11 9 8 10 10 13 14 16 13 14 14 13 12 9 9 11 11 12 13 14 15 17 20 22 23 24 25 26 27 29 28 28 30 31 31 28 27 28 28 26 28 31 32 36 40 46
8 8 9 12 13 12 13 14 9 13 19 18 17 16 14 11 11 12 13 14 15 16 18 20 22 24 26 28 29 30 30 32 34 33 30 29 31 34 33 29 33 33 31 28 28 30 31 36 42
17 18 16 15 17 16 17 17 15 17 18 17 14 15 14 12 13 15 17 16 17 19 23 25 27 28 29 32 34 35 35 34 33 33 34 33 33 34 36 36 34 37 35 32 29 27 27 31 39
16 17 17 17 15 14 17 18 12 9 10 11 14 15 17 16 18 18 17 18 21 25 27 31 33 33 33 34 35 37 37 36 31 30 32 35 36 36 37 39 35 32 35 34 30 27 26 29 27
20 18 18 18 15 7 9 5 8 9 13 15 18 21 22 21 18 17 17 19 23 26 29 31 33 33 34 36 37 39 38 35 32 33 29 30 33 36 35 35 34 32 36 36 34 29 27 31 35
17 17 16 16 15 13 14 7 9 15 18 20 23 23 21 22 18 16 17 19 25 31 33 32 33 34 34 36 37 39 38 37 34 32 31 31 27 28 30 32 34 35 36 37 37 33 31 30 31
16 13 11 10 8 4 19 15 9 20 19 19 20 21 21 22 19 18 21 26 30 33 32 33 34 35 35 36 37 38 39 39 37 33 31 29 28 29 30 30 32 33 33 33 37 38 33 31 32
17 12 1 2 1 5 7 12 8 19 16 19 21 22 23 23 21 21 23 30 34 32 31 32 34 35 36 36 37 38 37 36 35 32 31 30 29 30 31 29 29 29 31 32 35 36 35 31 29
19 19 7 7 4 4 10 8 5 13 20 25 25 25 25 26 21 21 30 36 35 33 31 33 35 35 35 37 38 35 30 28 29 29 30 29 28 29 29 31 29 28 30 32 36 36 36 34 30
11 21 17 2 2 2 7 5 9 17 20 24 26 26 25 22 23 28 35 40 34 31 31 35 37 37 38 38 35 29 26 26 27 27 27 26 28 31 31 32 31 30 32 34 38 37 35 34 30
13 16 9 10 3 4 5 9 11 21 23 25 21 22 25 27 30 32 40 39 31 32 33 36 38 40 38 32 29 27 24 23 24 26 28 32 34 35 36 36 34 32 32 35 36 37 36 35 31
21 16 9 7 4 5 1 3 10 16 18 21 14 18 25 29 32 38 43 32 31 33 36 38 38 36 27 26 27 27 25 25 25 27 31 33 34 34 31 31 31 30 32 36 34 37 32 29 29
13 21 17 6 5 3 1 4 7 6 20 15 9 16 25 30 35 41 31 28 31 34 36 36 36 29 25 26 26 25 24 25 27 28 31 30 28 29 28 29 27 31 33 32 33 33 28 25 26
Wind_Direction
263 244 243 217 210 223 242 165 196 217 213 230 249 238 221 202 212 179 197 200 218 211 198 187 190 188 200 202 201 202 206 211 212 198 189 181 185 162 152 149 157 174 201 300 294 248 140 50 39
256 239 223 223 225 231 96 202 208 226 238 237 217 215 200 208 202 210 198 189 208 206 197 201 202 195 203 210 213 212 213 218 228 223 215 200 193 179 169 162 165 194 235 253 297 192 9 22 3
247 221 210 205 211 230 161 196 204 218 251 229 180 204 214 207 220 224 219 203 177 194 208 202 207 208 212 215 223 226 225 224 226 232 230 226 212 195 187 196 196 216 222 251 244 279 294 337 332
237 209 205 207 177 179 188 204 217 227 195 186 178 189 219 223 178 212 209 177 166 216 206 202 207 213 216 217 224 235 237 236 235 237 237 236 233 219 203 219 215 218 223 228 232 278 288 309 319
232 201 203 203 218 213 210 225 244 239 193 182 199 200 204 200 178 199 205 196 198 199 211 219 215 223 221 226 229 236 240 241 241 240 241 236 236 232 229 232 232 228 220 220 234 254 275 295 300
215 192 178 224 237 228 243 247 235 219 210 190 203 224 223 182 207 224 233 234 229 228 231 237 239 236 237 243 241 243 247 246 242 241 239 241 238 236 237 236 235 224 220 219 232 253 274 286 283
222 193 174 260 202 220 251 236 221 230 222 195 201 235 245 239 232 236 244 247 246 243 242 242 250 252 251 249 248 246 246 248 247 247 246 244 246 243 241 241 243 235 231 236 245 259 272 277 276
235 225 220 216 229 261 259 226 215 221 227 208 208 235 253 168 208 226 236 241 245 243 243 242 244 252 255 256 255 254 253 249 248 249 248 249 248 250 248 246 248 245 244 244 248 266 275 277 273
225 207 206 218 221 236 250 222 212 215 211 206 214 233 255 266 263 251 251 253 254 254 253 252 252 250 251 255 255 256 257 255 253 250 247 249 249 250 251 251 252 251 252 251 252 258 271 273 272
209 209 209 222 250 237 233 218 204 209 211 199 204 227 224 241 249 255 253 258 260 260 261 257 260 261 259 257 259 260 259 257 254 253 249 246 249 252 251 251 252 253 254 255 256 256 261 266 265
229 225 226 238 253 232 207 193 182 190 193 164 156 183 206 233 251 261 261 260 269 275 272 269 263 262 263 264 263 260 260 261 259 256 255 251 247 250 252 253 255 254 255 258 258 259 262 263 263
240 244 258 227 216 212 198 182 179 189 171 161 167 224 231 241 260 258 258 271 283 288 290 287 283 276 271 273 272 266 262 263 264 259 254 255 253 249 251 253 256 257 255 257 261 259 259 259 258
244 249 229 216 203 213 212 210 196 205 203 185 227 248 253 273 271 282 308 321 314 312 311 307 306 305 299 292 286 280 277 271 267 267 267 260 256 256 254 251 251 256 258 262 260 262 260 257 252
261 247 237 232 224 236 240 234 226 210 212 220 263 258 260 265 271 299 303 315 313 319 317 315 320 323 324 323 314 302 290 282 279 274 269 268 264 256 254 257 255 253 257 256 264 269 264 252 251
249 251 249 243 237 242 257 256 255 220 219 259 280 277 272 272 284 292 304 321 316 313 306 308 313 316 316 312 309 304 298 292 285 280 278 276 273 270 259 253 254 254 253 254 251 263 254 228 248
255 246 248 246 242 241 248 244 229 214 241 279 285 280 263 257 263 280 296 301 296 293 297 303 310 310 306 303 308 306 296 289 285 282 276 272 270 269 269 264 255 254 254 254 256 256 256 272 256
245 247 246 252 233 231 240 249 236 238 239 271 273 276 256 251 259 278 283 285 285 289 299 310 312 311 307 308 307 305 299 289 285 283 277 271 271 270 267 265 264 261 258 257 256 257 257 255 234
241 249 247 244 248 251 251 243 270 269 270 264 266 268 245 240 257 274 278 277 282 293 307 309 308 303 302 301 300 300 298 295 288 282 274 271 271 270 267 267 269 268 264 261 260 259 253 249 254
223 239 238 238 251 264 271 273 256 246 264 274 273 257 239 243 260 271 271 274 285 299 306 306 303 302 302 300 300 301 298 293 287 280 271 263 264 269 271 269 266 266 267 265 261 254 251 249 252
239 242 241 252 258 264 272 276 279 267 261 256 235 231 247 256 258 267 272 282 290 295 300 303 308 307 304 304 303 302 300 298 291 279 271 265 260 260 268 272 268 261 259 260 262 261 253 253 231
242 247 246 244 258 267 279 285 279 260 235 214 207 228 247 257 262 277 282 286 298 307 306 307 305 304 304 302 300 301 300 300 294 287 274 265 266 262 266 268 268 259 257 253 252 253 254 254 235
243 243 239 241 256 259 267 282 253 244 207 206 212 224 238 251 264 271 277 290 300 301 302 303 303 302 302 302 300 300 298 297 291 286 279 264 264 267 264 261 258 260 259 257 249 247 247 246 244
236 233 237 245 248 255 250 250 269 226 210 202 217 231 245 254 264 269 283 293 301 307 306 303 299 300 300 298 296 297 295 292 292 283 274 266 258 260 263 259 255 253 256 250 247 242 243 252 243
234 232 227 227 234 255 249 227 225 207 224 215 219 235 248 259 265 279 291 302 310 309 302 297 297 300 299 299 296 295 293 289 285 280 272 265 264 265 263 262 259 252 247 244 242 237 239 247 254
223 214 92 4 229 221 218 206 238 212 225 229 236 246 256 265 269 281 293 306 314 309 302 301 302 302 303 301 298 296 292 287 282 277 271 267 267 267 267 260 254 251 243 239 243 240 232 241 246
225 211 197 197 193 211 184 226 223 215 207 216 232 244 253 259 275 283 305 315 314 307 305 305 306 308 306 305 303 297 290 281 276 274 273 273 271 269 263 264 258 246 235 237 235 239 230 236 240
214 211 219 241 207 133 195 191 184 195 205 220 230 242 255 272 288 297 310 317 309 306 308 313 314 311 310 308 305 297 286 279 274 272 272 271 273 270 265 261 259 249 237 234 236 233 227 235 233
217 200 201 206 149 219 233 196 209 211 222 229 242 258 271 284 294 305 315 312 304 309 311 317 317 315 312 308 308 299 290 288 279 282 287 282 279 275 272 260 255 248 236 231 233 227 224 235 234
213 204 201 198 210 167 177 208 206 236 233 233 247 269 275 287 299 308 312 304 311 313 317 320 319 316 311 308 307 301 296 288 282 283 285 285 282 278 271 257 254 240 229 229 228 221 220 236 232
229 230 227 216 197 189 147 252 240 217 222 218 256 269 286 298 304 308 305 311 315 316 320 322 319 319 315 310 306 305 295 283 282 283 286 288 279 273 264 266 245 229 222 223 227 213 220 225 226